Location: Staunton
(38.1490°N, 79.0720°W)
Time: 22:53:05
(UTC-05:00)

ISS - Pass Details

Date: 21 February 2020
Orbit: 415 x 423 km, 51.6° (Epoch: 27 February)

Event Time Altitude Azimuth Distance (km) Brightness Sun altitude
Exits shadow 06:03:32 - 217° (SW) 1,950 -0.7 -11.7°
Reaches altitude 10° 06:04:41 10° 214° (SSW) 1,489 -1.3 -11.5°
Maximum altitude 06:07:56 52° 137° (SE) 527 -3.0 -10.9°
Drops below altitude 10° 06:11:14 10° 60° (ENE) 1,502 -0.1 -10.2°
Sets 06:13:22 0° 55° (NE) 2,371 0.9 -9.8°
